Theta_e
285 286 285 285 285 284 284 284 284 284 284 284 284 284 284 284 285 288 291 291 291 292 293 294 295 295 295 295 295 295 295 295 294 296 293 293 292 291 290 290 290 290 290
286 285 285 285 284 284 284 284 284 284 284 284 284 284 283 284 284 284 284 286 289 290 291 291 292 293 293 293 293 293 293 294 294 293 293 292 290 291 291 290 290 290 290
286 286 285 284 284 284 284 283 283 283 283 283 283 283 284 284 283 283 284 284 284 286 288 289 290 290 291 291 291 291 291 292 293 293 292 291 290 290 289 289 289 289 289
287 286 286 285 284 284 283 283 282 282 281 281 281 281 281 282 283 283 283 283 284 284 285 286 287 288 289 289 290 290 290 291 291 290 291 289 289 288 288 286 284 287 288
287 287 286 285 284 283 283 282 282 281 281 281 280 280 280 280 281 281 282 283 283 284 284 284 285 285 286 288 288 289 289 289 290 289 290 287 287 287 286 285 285 284 284
287 287 286 284 283 282 282 282 281 281 280 279 279 279 278 279 279 280 282 282 283 283 284 284 284 284 285 285 287 288 289 289 289 290 290 289 288 287 286 285 284 283 282
285 284 283 282 282 281 281 281 280 279 279 278 278 278 277 277 278 279 280 280 281 282 283 283 284 284 284 285 285 286 287 289 290 289 289 290 289 287 286 285 284 285 286
282 281 280 280 280 279 278 277 277 276 277 277 277 277 277 276 277 277 278 278 279 279 280 281 283 283 284 284 285 285 286 286 288 289 290 289 290 289 287 287 286 286 286
278 278 278 277 275 273 273 272 272 273 273 274 274 274 275 275 275 275 276 276 276 276 277 278 279 281 282 284 285 286 285 285 286 287 288 289 290 289 288 285 285 284 284
276 275 273 271 270 270 269 268 268 268 269 269 270 270 270 270 271 272 273 273 274 274 275 276 277 279 281 282 284 285 286 286 285 286 286 287 288 289 289 286 285 284 285
272 270 269 268 267 266 266 266 266 265 266 266 266 266 267 267 268 269 271 272 273 274 274 275 276 277 279 281 283 285 285 285 286 286 285 286 287 287 288 289 285 286 286
268 267 266 266 265 265 264 264 264 264 264 264 264 265 265 266 266 267 269 270 271 272 272 274 275 276 278 280 282 283 285 287 287 286 285 286 286 286 287 287 286 285 285
266 265 265 265 264 264 263 263 263 263 264 264 264 264 265 265 265 266 268 268 269 269 270 270 272 274 277 278 281 283 285 285 286 287 287 285 286 286 286 287 286 285 284
265 265 264 264 263 263 263 263 263 263 263 264 264 265 265 266 267 267 267 267 268 269 269 270 270 272 274 276 279 282 285 285 285 286 287 286 285 285 285 285 285 284 282
264 264 263 263 263 263 262 262 263 264 264 266 267 268 269 269 269 270 272 273 273 273 272 270 270 273 274 275 278 281 282 283 283 284 287 286 285 284 284 283 283 280 282
263 263 263 263 263 262 262 262 263 265 266 267 268 269 270 270 271 272 272 273 274 274 274 273 273 273 273 274 276 279 280 281 282 284 285 286 285 283 283 282 282 281 281
263 262 262 262 262 262 262 262 263 263 265 266 267 268 269 270 271 272 273 274 274 275 274 273 273 273 273 274 276 277 280 281 283 284 285 285 284 283 282 282 281 280 280
263 263 262 262 262 262 262 263 263 264 264 265 266 267 269 269 270 272 273 274 274 273 273 273 272 272 273 274 275 277 278 281 282 283 284 285 283 282 282 280 279 279 279
262 262 262 261 262 262 262 262 263 264 265 265 265 266 266 267 269 269 269 269 270 271 272 273 273 272 273 273 275 276 277 281 281 282 283 283 282 281 280 279 278 278 278
262 262 261 261 261 261 261 262 263 263 264 264 264 264 264 268 265 265 265 266 267 267 268 268 269 274 274 276 276 277 278 280 281 282 282 281 280 279 278 278 277 277 276
262 261 261 260 260 260 261 261 262 263 263 263 263 263 267 265 264 264 264 264 265 265 266 267 270 275 276 277 280 280 280 280 280 280 279 278 278 277 277 276 275 275 274
261 261 261 260 260 260 260 261 261 262 263 263 263 263 265 263 263 263 263 263 263 264 264 265 267 269 271 274 276 278 279 278 277 277 276 275 275 274 274 273 273 273 272
261 261 261 261 260 260 260 261 261 261 262 262 262 262 263 262 262 262 262 262 262 262 264 265 265 267 269 271 273 274 273 273 273 274 273 273 272 272 272 271 271 271 271
261 260 260 260 260 260 260 260 260 260 260 261 261 261 261 261 262 262 262 262 262 262 263 264 265 266 267 269 270 270 271 271 272 272 272 271 271 270 270 270 270 270 269
260 260 260 260 259 259 259 260 260 260 260 260 260 260 260 260 261 261 262 262 262 263 263 264 265 265 266 267 267 268 269 270 270 270 270 270 269 269 269 268 268 268 268
260 260 260 259 259 259 259 259 259 259 259 259 259 259 260 260 260 261 261 262 262 263 264 264 265 266 267 267 267 267 267 268 268 268 268 268 268 267 267 267 267 267 267
Wind_Speed
11 11 13 15 16 19 21 22 20 21 24 25 23 21 21 21 19 18 18 21 22 24 27 29 32 33 38 40 41 41 41 40 20 26 28 34 34 39 44 46 45 42 41
10 11 13 15 17 17 20 22 22 21 22 24 28 29 27 25 22 20 21 22 23 25 25 28 31 32 35 37 40 38 36 36 33 25 29 31 38 40 43 46 47 45 44
8 10 13 15 18 19 21 24 25 25 25 26 25 26 27 29 30 27 25 24 25 26 26 27 29 30 33 31 34 37 32 32 37 34 27 29 37 36 39 40 44 45 44
12 16 19 23 26 26 27 28 29 29 31 30 30 30 29 31 30 31 32 31 30 29 29 27 28 29 33 32 30 35 35 32 30 33 30 26 28 30 38 31 28 42 47
15 18 23 28 32 33 34 35 35 35 36 36 38 39 38 36 34 31 31 32 35 36 36 34 31 30 31 32 31 29 31 31 29 26 28 24 24 17 32 27 31 30 37
15 19 25 30 32 34 36 39 40 36 35 36 36 36 39 36 29 28 29 32 33 34 35 37 38 35 33 32 33 36 35 30 30 29 27 28 31 28 28 30 28 19 9
14 21 25 27 31 33 34 37 39 37 38 38 37 34 34 36 34 34 33 33 33 33 34 34 35 34 36 35 34 33 36 40 42 37 36 38 28 32 29 30 33 32 26
20 22 24 24 24 28 32 33 34 34 34 36 37 37 37 43 40 37 36 35 34 36 36 37 37 37 36 35 35 34 36 36 42 43 45 46 39 34 41 42 41 42 31
20 20 20 23 30 31 30 31 32 33 35 36 37 39 37 43 40 40 38 37 37 40 39 39 39 40 40 37 35 34 35 37 39 41 47 46 42 38 39 37 33 24 18
15 20 27 29 28 29 29 31 32 31 34 35 38 37 39 43 42 42 40 37 37 37 40 41 42 43 44 42 39 37 33 40 32 35 37 43 46 45 38 44 39 33 29
22 25 24 25 29 30 30 29 30 31 33 33 35 34 34 35 38 36 35 36 35 35 36 37 37 39 42 43 42 41 41 40 33 34 33 33 35 39 44 41 45 42 36
23 26 28 30 29 28 29 32 29 29 30 31 31 32 29 29 31 32 32 33 36 39 38 37 38 41 43 45 44 43 43 43 36 30 30 30 32 33 38 42 41 43 42
23 27 29 29 27 26 27 28 27 26 27 27 27 28 30 31 32 34 35 35 34 36 37 41 47 47 43 46 48 47 42 37 32 31 30 33 33 33 32 33 38 39 38
24 27 26 24 27 24 24 26 26 27 26 26 28 30 32 31 30 29 31 34 38 39 40 41 41 38 41 43 46 39 37 34 31 30 31 31 30 27 29 28 28 29 27
24 24 22 21 22 24 25 27 27 30 29 32 32 33 33 31 32 38 40 38 35 34 36 34 32 29 29 31 29 25 23 26 29 34 31 28 27 26 27 28 28 24 22
24 20 22 22 22 24 25 27 30 30 32 34 36 37 37 39 41 40 41 41 40 40 36 29 28 27 26 26 26 22 22 26 31 33 32 27 24 26 27 26 28 28 25
23 23 22 22 22 24 24 25 25 37 34 33 32 34 35 38 40 40 40 37 36 36 27 25 25 26 27 25 23 26 24 25 25 28 27 27 26 27 28 27 26 25 23
22 24 22 21 22 25 25 26 26 25 27 35 39 34 34 35 36 37 36 34 28 29 28 28 26 26 24 21 25 22 24 25 23 26 26 25 26 28 24 25 26 26 26
21 20 21 22 22 24 25 24 24 25 26 29 32 34 32 35 35 32 27 23 22 23 26 26 27 26 26 26 28 28 28 28 25 24 25 22 23 25 25 27 28 29 26
19 19 20 20 21 23 22 21 23 24 25 26 27 28 34 30 28 29 26 24 22 24 27 25 28 27 27 25 29 29 28 29 23 24 23 22 25 27 26 24 25 23 24
17 21 19 18 20 20 20 20 20 22 23 24 26 28 30 26 24 25 25 25 25 26 28 29 27 14 21 25 24 22 20 18 20 18 18 20 21 20 20 21 22 22 21
15 16 19 18 19 20 20 19 18 20 22 23 26 27 27 24 24 25 25 26 26 25 26 26 24 23 20 16 8 6 12 15 16 17 17 18 19 20 21 21 20 21 22
11 14 16 17 18 19 19 19 19 19 21 22 24 25 26 25 25 26 27 27 28 28 30 29 30 27 22 18 13 6 5 8 11 16 20 20 20 21 22 21 21 20 20
9 11 12 14 16 18 19 20 20 20 21 21 22 23 24 25 25 26 27 28 29 29 30 30 29 28 25 21 17 12 7 5 9 13 18 21 20 20 20 19 18 19 21
7 9 10 12 13 15 17 18 19 20 21 20 21 22 24 24 25 27 28 30 29 29 30 29 29 27 28 24 19 15 11 7 7 10 14 19 21 21 20 20 20 19 20
6 7 9 10 11 13 14 16 18 18 20 21 22 23 23 25 26 27 28 29 29 29 29 28 27 28 28 25 24 20 15 10 9 10 14 19 23 23 22 22 22 21 22
Wind_Direction
28 22 18 14 8 0 356 356 357 353 349 346 347 353 357 351 350 339 322 308 297 291 283 274 269 267 265 265 264 258 255 248 250 255 247 240 232 227 227 229 231 230 231
21 5 3 356 352 350 342 340 339 337 336 336 334 336 340 337 336 338 331 320 309 299 290 287 281 276 271 269 265 261 254 249 245 252 247 234 229 229 231 227 227 228 231
1 347 348 347 339 336 332 331 332 329 329 329 326 322 323 323 322 324 322 317 311 304 298 289 283 281 277 274 268 264 256 252 249 247 247 235 230 225 220 226 226 226 230
339 335 335 336 335 329 328 330 327 327 325 323 321 317 317 315 312 311 311 309 306 303 300 293 288 282 276 272 266 263 260 252 245 242 244 225 221 222 218 208 210 222 227
316 318 324 325 325 325 324 325 325 323 321 319 317 315 315 312 307 307 304 301 298 299 297 294 291 287 282 275 263 257 254 250 246 240 243 233 217 197 201 203 213 214 219
297 303 312 315 316 318 318 320 319 318 316 313 309 307 307 302 296 293 291 288 288 286 283 286 287 286 283 279 271 262 252 245 242 242 243 237 233 222 205 200 198 195 219
302 308 310 311 310 311 311 311 310 311 310 306 303 302 297 294 293 294 294 292 286 281 278 276 274 274 278 279 276 267 260 250 247 245 244 242 242 226 208 204 203 206 217
314 312 312 312 309 307 306 307 305 303 299 297 294 293 293 291 293 294 295 292 287 283 278 275 271 271 266 266 267 263 258 252 247 245 245 249 244 240 226 219 214 217 222
317 315 311 311 310 310 306 303 301 300 297 294 292 292 291 289 291 293 294 294 289 283 279 276 272 271 267 264 258 252 253 252 251 249 247 246 246 244 241 215 214 204 219
315 308 309 310 308 306 303 301 300 296 293 293 292 291 291 290 293 294 293 289 284 282 281 278 273 268 267 263 258 253 248 249 245 245 246 246 243 239 240 226 211 209 220
307 311 312 310 309 308 304 300 299 295 293 292 290 291 291 291 295 297 296 291 285 283 278 278 276 274 272 267 261 254 249 254 247 242 242 241 238 236 233 232 225 217 219
318 317 318 319 317 310 306 302 297 294 292 292 292 293 293 293 294 298 298 294 291 289 287 286 282 278 275 269 263 258 254 252 249 242 236 236 234 234 231 228 224 226 228
321 322 323 322 316 311 300 298 298 296 291 292 293 293 292 290 288 290 291 291 290 286 284 285 283 280 284 278 271 258 253 251 244 240 235 234 232 235 236 231 227 219 226
327 327 321 313 311 307 305 302 298 295 294 292 291 287 286 286 285 285 281 274 271 270 269 272 274 280 277 280 267 258 245 242 243 244 241 234 233 228 222 219 218 210 210
330 320 312 308 305 307 304 298 295 293 293 293 294 295 297 296 297 296 295 295 291 282 274 263 264 270 275 278 286 245 240 240 247 250 244 229 221 214 210 203 203 190 199
322 313 311 306 310 307 302 301 303 302 304 302 301 302 301 298 301 301 299 297 294 289 280 274 276 269 267 269 273 274 249 247 242 244 237 227 212 205 206 201 197 195 195
318 312 307 307 311 304 303 301 303 311 311 308 309 310 308 305 304 303 303 300 296 295 281 275 265 266 262 264 260 263 257 243 250 241 238 224 213 204 200 197 195 190 192
319 319 304 305 308 303 302 302 305 306 308 312 317 319 317 318 316 312 312 309 302 292 281 268 262 260 264 265 255 260 262 258 247 241 235 221 203 202 197 192 189 187 189
323 317 309 310 307 303 303 306 308 311 311 312 316 322 325 323 323 325 326 321 311 303 300 287 263 254 251 247 253 250 252 244 234 233 232 214 203 192 192 192 190 190 185
327 328 313 320 314 308 309 311 318 320 321 322 322 323 323 332 336 332 332 328 326 320 316 307 296 257 252 257 244 243 245 239 231 230 225 200 192 190 190 186 184 180 180
330 328 332 333 323 313 309 315 320 324 324 325 324 327 337 345 331 332 332 333 332 331 329 328 348 298 272 265 257 229 223 228 222 213 191 184 179 173 177 175 175 175 168
324 334 337 341 339 326 319 325 327 326 328 329 331 336 348 347 345 342 340 341 340 343 347 346 348 5 15 17 5 259 204 184 184 177 164 159 154 150 151 151 153 153 154
334 340 342 354 350 343 342 351 345 337 335 336 338 340 348 350 351 351 350 349 352 357 10 15 13 16 21 27 30 34 111 126 146 156 145 140 139 141 145 145 148 149 154
344 346 353 1 355 347 352 355 357 349 344 343 346 347 349 351 354 355 357 359 3 9 16 23 25 26 26 31 35 39 56 116 151 155 158 147 136 134 135 136 140 144 143
343 349 5 10 0 354 354 358 358 359 356 352 351 351 354 358 359 2 7 10 11 16 23 27 33 34 34 35 37 44 54 75 124 145 148 143 132 129 127 127 129 130 129
332 347 3 3 360 0 2 357 354 355 357 358 359 1 3 6 10 11 12 15 18 23 28 33 37 41 44 38 41 44 48 66 94 118 131 132 125 118 119 118 119 118 116